Time,TemperatureF,DewpointF,PressureIn,WindDirection,WindDirectionDegrees,WindSpeedMPH,WindSpeedGustMPH,Humidity,HourlyPrecipIn,Conditions,Clouds,dailyrainin,SolarRadiationWatts/m^2,SoftwareType,DateUTC
2013-01-11 00:12:00,15.0,11.0,-100.00,SW,234,6.0,11.0,83,0.00,,,0.00,0.000000,,2013-01-11 07:12:00,
2013-01-11 00:22:00,15.0,11.0,-100.00,SW,234,6.0,11.0,83,0.00,,,0.00,0.000000,,2013-01-11 07:22:00,
2013-01-11 00:32:00,15.0,11.0,-100.00,SW,234,6.0,11.0,83,0.00,,,0.00,0.000000,,2013-01-11 07:32:00,
2013-01-11 00:42:00,15.0,11.0,-100.00,SW,234,6.0,11.0,83,0.00,,,0.00,0.000000,,2013-01-11 07:42:00,
2013-01-11 00:52:00,14.0,10.0,-100.00,WSW,256,3.0,8.0,82,0.00,,,0.00,0.000000,,2013-01-11 07:52:00,
2013-01-11 01:12:00,14.0,10.0,-100.00,WSW,256,3.0,8.0,82,0.00,,,0.00,0.000000,,2013-01-11 08:12:00,
2013-01-11 01:22:00,14.0,10.0,-100.00,WSW,256,3.0,8.0,82,0.00,,,0.00,0.000000,,2013-01-11 08:22:00,
2013-01-11 01:32:00,14.0,10.0,-100.00,WSW,256,3.0,8.0,82,0.00,,,0.00,0.000000,,2013-01-11 08:32:00,
2013-01-11 01:42:00,14.0,10.0,-100.00,WSW,256,3.0,8.0,82,0.00,,,0.00,0.000000,,2013-01-11 08:42:00,
2013-01-11 01:52:00,13.0,8.0,-100.00,WSW,257,0.0,6.0,81,0.00,,,-99.99,0.000000,,2013-01-11 08:52:00,
2013-01-11 02:12:00,13.0,8.0,-100.00,WSW,257,0.0,6.0,81,0.00,,,-99.99,0.000000,,2013-01-11 09:12:00,
2013-01-11 02:22:00,13.0,8.0,-100.00,WSW,257,0.0,6.0,81,0.00,,,-99.99,0.000000,,2013-01-11 09:22:00,
2013-01-11 02:32:00,13.0,8.0,-100.00,WSW,257,0.0,6.0,81,0.00,,,-99.99,0.000000,,2013-01-11 09:32:00,
2013-01-11 02:42:00,13.0,8.0,-100.00,WSW,257,0.0,6.0,81,0.00,,,-99.99,0.000000,,2013-01-11 09:42:00,
2013-01-11 02:52:00,12.0,7.0,-100.00,WSW,252,2.0,7.0,80,0.00,,,0.00,0.000000,,2013-01-11 09:52:00,
2013-01-11 03:22:00,12.0,7.0,-100.00,WSW,252,2.0,7.0,80,0.00,,,0.00,0.000000,,2013-01-11 10:22:00,
2013-01-11 03:32:00,12.0,7.0,-100.00,WSW,252,2.0,7.0,80,0.00,,,0.00,0.000000,,2013-01-11 10:32:00,
2013-01-11 03:42:00,12.0,7.0,-100.00,WSW,252,2.0,7.0,80,0.00,,,0.00,0.000000,,2013-01-11 10:42:00,
2013-01-11 03:52:00,11.0,6.0,-100.00,SSW,197,0.0,8.0,80,0.00,,,0.00,0.000000,,2013-01-11 10:52:00,
2013-01-11 04:12:00,11.0,6.0,-100.00,SSW,197,0.0,8.0,80,0.00,,,0.00,0.000000,,2013-01-11 11:12:00,
2013-01-11 04:22:00,11.0,6.0,-100.00,SSW,197,0.0,8.0,80,0.00,,,0.00,0.000000,,2013-01-11 11:22:00,
2013-01-11 04:32:00,11.0,6.0,-100.00,SSW,197,0.0,8.0,80,0.00,,,0.00,0.000000,,2013-01-11 11:32:00,
2013-01-11 04:42:00,11.0,6.0,-100.00,SSW,197,0.0,8.0,80,0.00,,,0.00,0.000000,,2013-01-11 11:42:00,
2013-01-11 04:52:00,11.0,6.0,-100.00,West,263,0.0,4.0,79,0.00,,,-99.99,0.000000,,2013-01-11 11:52:00,
2013-01-11 05:22:00,11.0,6.0,-100.00,West,263,0.0,4.0,79,0.00,,,-99.99,0.000000,,2013-01-11 12:22:00,
2013-01-11 05:32:00,11.0,6.0,-100.00,West,263,0.0,4.0,79,0.00,,,-99.99,0.000000,,2013-01-11 12:32:00,
2013-01-11 05:42:00,11.0,6.0,-100.00,West,263,0.0,4.0,79,0.00,,,-99.99,0.000000,,2013-01-11 12:42:00,
2013-01-11 05:52:00,10.0,5.0,-100.00,West,272,0.0,6.0,79,0.00,,,-99.99,0.000000,,2013-01-11 12:52:00,
2013-01-11 06:12:00,10.0,5.0,-100.00,West,272,0.0,6.0,79,0.00,,,-99.99,0.000000,,2013-01-11 13:12:00,
2013-01-11 06:22:00,10.0,5.0,-100.00,West,272,0.0,6.0,79,0.00,,,-99.99,0.000000,,2013-01-11 13:22:00,
2013-01-11 06:32:00,10.0,5.0,-100.00,West,272,0.0,6.0,79,0.00,,,-99.99,0.000000,,2013-01-11 13:32:00,
2013-01-11 06:42:00,10.0,5.0,-100.00,West,272,0.0,6.0,79,0.00,,,-99.99,0.000000,,2013-01-11 13:42:00,
2013-01-11 06:52:00,10.0,5.0,-100.00,WSW,249,1.0,7.0,78,0.00,,,0.00,0.000000,,2013-01-11 13:52:00,
2013-01-11 07:22:00,10.0,5.0,-100.00,WSW,249,1.0,7.0,78,0.00,,,0.00,0.000000,,2013-01-11 14:22:00,
2013-01-11 07:33:00,10.0,5.0,-100.00,WSW,249,1.0,7.0,78,0.00,,,0.00,0.000000,,2013-01-11 14:33:00,
2013-01-11 07:42:00,10.0,5.0,-100.00,WSW,249,1.0,7.0,78,0.00,,,0.00,0.000000,,2013-01-11 14:42:00,
2013-01-11 07:52:00,9.0,4.0,-100.00,West,264,2.0,8.0,78,0.00,,,0.00,0.000000,,2013-01-11 14:52:00,
2013-01-11 08:12:00,9.0,4.0,-100.00,West,264,2.0,8.0,78,0.00,,,0.00,0.000000,,2013-01-11 15:12:00,
2013-01-11 08:23:00,9.0,4.0,-100.00,West,264,2.0,8.0,78,0.00,,,0.00,0.000000,,2013-01-11 15:23:00,
2013-01-11 08:32:00,9.0,4.0,-100.00,West,264,2.0,8.0,78,0.00,,,0.00,0.000000,,2013-01-11 15:32:00,
2013-01-11 08:42:00,9.0,4.0,-100.00,West,264,2.0,8.0,78,0.00,,,0.00,0.000000,,2013-01-11 15:42:00,
2013-01-11 08:52:00,9.0,3.0,-100.00,SW,235,4.0,7.0,77,0.00,,,0.00,6.000000,,2013-01-11 15:52:00,
2013-01-11 09:12:00,9.0,3.0,-100.00,SW,235,4.0,7.0,77,0.00,,,0.00,6.000000,,2013-01-11 16:12:00,
2013-01-11 09:22:00,9.0,3.0,-100.00,SW,235,4.0,7.0,77,0.00,,,0.00,6.000000,,2013-01-11 16:22:00,
2013-01-11 09:32:00,9.0,3.0,-100.00,SW,235,4.0,7.0,77,0.00,,,0.00,6.000000,,2013-01-11 16:32:00,
2013-01-11 09:42:00,9.0,3.0,-100.00,SW,235,4.0,7.0,77,0.00,,,0.00,6.000000,,2013-01-11 16:42:00,
2013-01-11 09:52:00,10.0,4.0,-100.00,WSW,245,2.0,7.0,77,0.00,,,0.00,25.000000,,2013-01-11 16:52:00,
2013-01-11 10:12:00,10.0,4.0,-100.00,WSW,245,2.0,7.0,77,0.00,,,0.00,25.000000,,2013-01-11 17:12:00,
2013-01-11 10:22:00,10.0,4.0,-100.00,WSW,245,2.0,7.0,77,0.00,,,0.00,25.000000,,2013-01-11 17:22:00,
2013-01-11 10:33:00,10.0,4.0,-100.00,WSW,245,2.0,7.0,77,0.00,,,0.00,25.000000,,2013-01-11 17:33:00,
2013-01-11 10:42:00,10.0,4.0,-100.00,WSW,245,2.0,7.0,77,0.00,,,0.00,25.000000,,2013-01-11 17:42:00,
2013-01-11 10:52:00,11.0,5.0,-100.00,WSW,241,4.0,8.0,77,0.00,,,0.00,48.000000,,2013-01-11 17:52:00,
2013-01-11 11:12:00,11.0,5.0,-100.00,WSW,241,4.0,8.0,77,0.00,,,0.00,48.000000,,2013-01-11 18:12:00,
2013-01-11 11:23:00,11.0,5.0,-100.00,WSW,241,4.0,8.0,77,0.00,,,0.00,48.000000,,2013-01-11 18:23:00,
2013-01-11 11:32:00,11.0,5.0,-100.00,WSW,241,4.0,8.0,77,0.00,,,0.00,48.000000,,2013-01-11 18:32:00,
2013-01-11 11:42:00,11.0,5.0,-100.00,WSW,241,4.0,8.0,77,0.00,,,0.00,48.000000,,2013-01-11 18:42:00,
2013-01-11 11:52:00,13.0,7.0,-100.00,West,267,2.0,9.0,77,0.00,,,0.00,95.000000,,2013-01-11 18:52:00,
2013-01-11 12:12:00,13.0,7.0,-100.00,West,267,2.0,9.0,77,0.00,,,0.00,95.000000,,2013-01-11 19:12:00,
2013-01-11 12:22:00,13.0,7.0,-100.00,West,267,2.0,9.0,77,0.00,,,0.00,95.000000,,2013-01-11 19:22:00,
2013-01-11 12:32:00,13.0,7.0,-100.00,West,267,2.0,9.0,77,0.00,,,0.00,95.000000,,2013-01-11 19:32:00,
2013-01-11 12:42:00,13.0,7.0,-100.00,West,267,2.0,9.0,77,0.00,,,0.00,95.000000,,2013-01-11 19:42:00,
2013-01-11 12:52:00,15.0,9.0,-100.00,West,268,2.0,8.0,75,0.00,,,0.00,108.000000,,2013-01-11 19:52:00,
2013-01-11 13:12:00,15.0,9.0,-100.00,West,268,2.0,8.0,75,0.00,,,0.00,108.000000,,2013-01-11 20:12:00,
2013-01-11 13:22:00,15.0,9.0,-100.00,West,268,2.0,8.0,75,0.00,,,0.00,108.000000,,2013-01-11 20:22:00,
2013-01-11 13:32:00,15.0,9.0,-100.00,West,268,2.0,8.0,75,0.00,,,0.00,108.000000,,2013-01-11 20:32:00,
2013-01-11 13:43:00,15.0,9.0,-100.00,West,268,2.0,8.0,75,0.00,,,0.00,108.000000,,2013-01-11 20:43:00,
2013-01-11 13:52:00,13.0,5.0,-100.00,WNW,292,4.0,7.0,71,0.00,,,0.00,77.000000,,2013-01-11 20:52:00,
2013-01-11 14:12:00,13.0,5.0,-100.00,WNW,292,4.0,7.0,71,0.00,,,0.00,77.000000,,2013-01-11 21:12:00,
2013-01-11 14:23:00,13.0,5.0,-100.00,WNW,292,4.0,7.0,71,0.00,,,0.00,77.000000,,2013-01-11 21:23:00,
2013-01-11 14:32:00,13.0,5.0,-100.00,WNW,292,4.0,7.0,71,0.00,,,0.00,77.000000,,2013-01-11 21:32:00,
2013-01-11 14:42:00,13.0,5.0,-100.00,WNW,292,4.0,7.0,71,0.00,,,0.00,77.000000,,2013-01-11 21:42:00,
2013-01-11 14:52:00,11.0,3.0,-100.00,NW,314,6.0,14.0,70,0.00,,,0.00,75.000000,,2013-01-11 21:52:00,
2013-01-11 15:12:00,11.0,3.0,-100.00,NW,314,6.0,14.0,70,0.00,,,0.00,75.000000,,2013-01-11 22:12:00,
2013-01-11 15:22:00,11.0,3.0,-100.00,NW,314,6.0,14.0,70,0.00,,,0.00,75.000000,,2013-01-11 22:22:00,
2013-01-11 15:33:00,11.0,3.0,-100.00,NW,314,6.0,14.0,70,0.00,,,0.00,75.000000,,2013-01-11 22:33:00,
2013-01-11 15:42:00,11.0,3.0,-100.00,NW,314,6.0,14.0,70,0.00,,,0.00,75.000000,,2013-01-11 22:42:00,
2013-01-11 15:52:00,8.0,0.0,-100.00,SSE,156,3.0,14.0,68,0.00,,,0.00,50.000000,,2013-01-11 22:52:00,
2013-01-11 16:12:00,8.0,0.0,-100.00,SSE,156,3.0,14.0,68,0.00,,,0.00,50.000000,,2013-01-11 23:12:00,
2013-01-11 16:22:00,8.0,0.0,-100.00,SSE,156,3.0,14.0,68,0.00,,,0.00,50.000000,,2013-01-11 23:22:00,
2013-01-11 16:32:00,8.0,0.0,-100.00,SSE,156,3.0,14.0,68,0.00,,,0.00,50.000000,,2013-01-11 23:32:00,
2013-01-11 16:42:00,8.0,0.0,-100.00,SSE,156,3.0,14.0,68,0.00,,,0.00,50.000000,,2013-01-11 23:42:00,
2013-01-11 16:52:00,5.0,-4.0,-100.00,WSW,255,1.0,10.0,66,0.00,,,-99.99,13.000000,,2013-01-11 23:52:00,
2013-01-11 17:12:00,5.0,-4.0,-100.00,WSW,255,1.0,10.0,66,0.00,,,-99.99,13.000000,,2013-01-12 00:12:00,
2013-01-11 17:22:00,5.0,-4.0,-100.00,WSW,255,1.0,10.0,66,0.00,,,-99.99,13.000000,,2013-01-12 00:22:00,
2013-01-11 17:32:00,5.0,-4.0,-100.00,WSW,255,1.0,10.0,66,0.00,,,-99.99,13.000000,,2013-01-12 00:32:00,
2013-01-11 17:42:00,5.0,-4.0,-100.00,WSW,255,1.0,10.0,66,0.00,,,-99.99,13.000000,,2013-01-12 00:42:00,
2013-01-11 17:52:00,3.0,-5.0,-100.00,WNW,296,2.0,7.0,69,0.00,,,0.00,0.000000,,2013-01-12 00:52:00,
2013-01-11 18:12:00,3.0,-5.0,-100.00,WNW,296,2.0,7.0,69,0.00,,,0.00,0.000000,,2013-01-12 01:12:00,
2013-01-11 18:22:00,3.0,-5.0,-100.00,WNW,296,2.0,7.0,69,0.00,,,0.00,0.000000,,2013-01-12 01:22:00,
2013-01-11 18:32:00,3.0,-5.0,-100.00,WNW,296,2.0,7.0,69,0.00,,,0.00,0.000000,,2013-01-12 01:32:00,
2013-01-11 18:42:00,3.0,-5.0,-100.00,WNW,296,2.0,7.0,69,0.00,,,0.00,0.000000,,2013-01-12 01:42:00,
2013-01-11 18:52:00,2.0,-6.0,-100.00,NW,324,0.0,7.0,69,0.00,,,0.00,0.000000,,2013-01-12 01:52:00,
2013-01-11 19:12:00,2.0,-6.0,-100.00,NW,324,0.0,7.0,69,0.00,,,0.00,0.000000,,2013-01-12 02:12:00,
2013-01-11 19:22:00,2.0,-6.0,-100.00,NW,324,0.0,7.0,69,0.00,,,0.00,0.000000,,2013-01-12 02:22:00,
2013-01-11 19:32:00,2.0,-6.0,-100.00,NW,324,0.0,7.0,69,0.00,,,0.00,0.000000,,2013-01-12 02:32:00,
2013-01-11 19:42:00,2.0,-6.0,-100.00,NW,324,0.0,7.0,69,0.00,,,0.00,0.000000,,2013-01-12 02:42:00,
2013-01-11 19:52:00,1.0,-7.0,-100.00,NE,52,0.0,9.0,69,0.00,,,0.00,0.000000,,2013-01-12 02:52:00,
2013-01-11 20:12:00,1.0,-7.0,-100.00,NE,52,0.0,9.0,69,0.00,,,0.00,0.000000,,2013-01-12 03:12:00,
2013-01-11 20:22:00,1.0,-7.0,-100.00,NE,52,0.0,9.0,69,0.00,,,0.00,0.000000,,2013-01-12 03:22:00,
2013-01-11 20:32:00,1.0,-7.0,-100.00,NE,52,0.0,9.0,69,0.00,,,0.00,0.000000,,2013-01-12 03:32:00,
2013-01-11 20:42:00,1.0,-7.0,-100.00,NE,52,0.0,9.0,69,0.00,,,0.00,0.000000,,2013-01-12 03:42:00,
2013-01-11 20:52:00,-1.0,-9.0,-100.00,ESE,115,0.0,0.0,68,0.00,,,0.00,0.000000,,2013-01-12 03:52:00,
2013-01-11 21:12:00,-1.0,-9.0,-100.00,ESE,115,0.0,0.0,68,0.00,,,0.00,0.000000,,2013-01-12 04:12:00,
2013-01-11 21:22:00,-1.0,-9.0,-100.00,ESE,115,0.0,0.0,68,0.00,,,0.00,0.000000,,2013-01-12 04:22:00,
2013-01-11 21:32:00,-1.0,-9.0,-100.00,ESE,115,0.0,0.0,68,0.00,,,0.00,0.000000,,2013-01-12 04:32:00,
2013-01-11 21:42:00,-1.0,-9.0,-100.00,ESE,115,0.0,0.0,68,0.00,,,0.00,0.000000,,2013-01-12 04:42:00,
2013-01-11 21:52:00,-3.0,-99.9,-100.00,East,79,0.0,-999.0,-999,0.00,,,0.00,,,2013-01-12 04:52:00,
2013-01-11 22:12:00,-3.0,-99.9,-100.00,East,79,0.0,-999.0,-999,0.00,,,0.00,,,2013-01-12 05:12:00,
2013-01-11 22:22:00,-3.0,-99.9,-100.00,East,79,0.0,-999.0,-999,0.00,,,0.00,,,2013-01-12 05:22:00,
2013-01-11 22:32:00,-3.0,-99.9,-100.00,East,79,0.0,-999.0,-999,0.00,,,0.00,,,2013-01-12 05:32:00,
2013-01-11 22:42:00,-3.0,-99.9,-100.00,East,79,0.0,-999.0,-999,0.00,,,0.00,,,2013-01-12 05:42:00,
2013-01-11 22:52:00,-6.0,-15.0,-100.00,East,87,0.0,0.0,65,0.00,,,0.00,0.000000,,2013-01-12 05:52:00,
2013-01-11 23:22:00,-6.0,-15.0,-100.00,East,87,0.0,0.0,65,0.00,,,0.00,0.000000,,2013-01-12 06:22:00,
2013-01-11 23:32:00,-6.0,-15.0,-100.00,East,87,0.0,0.0,65,0.00,,,0.00,0.000000,,2013-01-12 06:32:00,
2013-01-11 23:42:00,-6.0,-15.0,-100.00,East,87,0.0,0.0,65,0.00,,,0.00,0.000000,,2013-01-12 06:42:00,
2013-01-11 23:52:00,-8.0,-17.0,-100.00,East,89,0.0,0.0,65,0.00,,,0.00,0.000000,,2013-01-12 06:52:00,